[[{"header":{"parameterUnit":"m.s-1","parameterCategory":1,"la1":30.2991,"la2":30.254,"lo1":-89.0895,"lo2":-89.0444,"dy":0.0017,"dx":0.0017,"nx":28,"ny":28,"refTime":"2023-11-23T03:00:00:Z","depth":0,"parameterNumber":2,"parameterNumberName":"U-component_of_WINDS"},"data":[0,0,0,0,0,0,0,0,0,0,0,0,0,0,0,0,0,0,0,0,0,0,0,0,0,0,0,0,0,0,0,0,0,0,0,0,0,0,0,0,0,0,0,0,0,0,0,0,0,0,0,0,0,0,0,0,0,0,0.0554,0.0553,0,0.0533,0.0533,0.0533,0.0549,0.0549,0.055,0.0551,0.0528,0.0527,0.0526,0,0,0,0,0,0,0,0,0,0,0,0,0,0.0606,0.0605,0.0554,0.0553,0.0553,0.0533,0.0533,0.0533,0.0549,0.0549,0.055,0.0551,0.0529,0.0527,0.0526,0,0,0,0,0,0,0,0,0,0,0,0,0,0.0584,0.0605,0.0554,0.0559,0.0559,0.0533,0.0533,0.0533,0.0548,0.0549,0.055,0.0551,0.0529,0.0528,0.0526,0.0494,0,0,0.052,0.0519,0,0,0,0,0,0,0,0,0.0585,0.0582,0.0558,0.0558,0.0559,0.0545,0.0543,0.052,0.0548,0.0552,0.0551,0.0552,0.0533,0.0531,0.0525,0.0493,0.0492,0.052,0.0519,0.0518,0.0517,0,0,0,0,0,0,0,0.0587,0.0583,0.0546,0.0558,0.0558,0.0562,0.056,0.0539,0.0537,0.0552,0.0553,0.0551,0.0533,0.0526,0.0524,0.0491,0.052,0.0518,0.0517,0.0516,0.0433,0.0432,0,0,0,0,0,0,0.0588,0.0584,0.0546,0.0545,0.0575,0.056,0.0558,0.0548,0.0537,0.0537,0.055,0.0551,0.0529,0.0526,0.0524,0.0486,0.0518,0.0516,0.0515,0.0435,0.0433,0.0432,0,0,0,0,0,0,0.0589,0.0584,0.0547,0.0565,0.0561,0.0558,0.0547,0.0547,0.054,0.0536,0.0535,0.0543,0.053,0.0526,0.0501,0.0485,0.0515,0.0514,0.0436,0.0434,0.0433,0.041,0,0,0,0,0,0,0.0591,0.0585,0.0572,0.0565,0.056,0.0525,0.0546,0.0546,0.0537,0.0539,0.0529,0.0529,0.053,0.0504,0.05,0.0483,0.0512,0.0437,0.0435,0.0433,0.0412,0.0407,0.0404,0,0,0,0,0,0.0592,0.0566,0.0572,0.0567,0.0544,0.0524,0.0521,0.0524,0.0536,0.0523,0.0521,0.0529,0.0488,0.0501,0.0496,0.0479,0.0438,0.0436,0.0433,0.0414,0.0408,0.0404,0,0,0,0,0,0,0.0571,0.0565,0.0571,0.0542,0.0533,0.0527,0.0511,0.0518,0.0505,0.0508,0.0512,0.0509,0.0483,0.0479,0.0494,0.0449,0.0465,0.0462,0.0452,0.0447,0.0443,0.0444,0.0511,0,0,0,0,0,0.0563,0.0547,0.0543,0.0518,0.0513,0.0513,0.0504,0.0508,0.0499,0.0495,0.049,0.0481,0.0467,0.0457,0.0443,0.0412,0.041,0.0398,0.0394,0.0391,0.0387,0.0371,0.0366,0.0424,0.0424,0.0424,0,0,0.0546,0.0541,0.053,0.0513,0.0507,0.0491,0.051,0.0491,0.0479,0.0492,0.0468,0.0465,0.0455,0.0428,0.0415,0.0423,0.0371,0.0387,0.0385,0.0383,0.0368,0.0363,0.0358,0.0422,0.0423,0.0423,0,0,0.0506,0.0501,0.0479,0.0473,0.0465,0.0465,0.046,0.0453,0.0451,0.0428,0.0437,0.0424,0.0398,0.0391,0.0384,0.0344,0.0351,0.034,0.0318,0.0302,0.0298,0.0294,0.028,0.0274,0.0337,0.0337,0.0337,0,0.0485,0.0462,0.0467,0.0449,0.0441,0.0453,0.0432,0.0426,0.0412,0.0407,0.0416,0.0386,0.038,0.0351,0.0342,0.0336,0.033,0.034,0.0298,0.0294,0.029,0.0277,0.0272,0.0335,0.0335,0.0335,0.0336,0,0.0437,0.0421,0.0405,0.0392,0.0383,0.0363,0.0366,0.0356,0.0361,0.036,0.0337,0.0331,0.0316,0.031,0.0314,0.0282,0.0288,0.0298,0.0314,0.0283,0.0271,0.0266,0.0333,0.0334,0.0334,0.0334,0,0,0.0381,0.0374,0.0368,0.0363,0.0355,0.0343,0.0324,0.0311,0.0302,0.0293,0.0278,0.0257,0.0267,0.0259,0.0263,0.0249,0.0219,0.0261,0.0261,0.0253,0.0183,0.0175,0.0169,0.0224,0.0223,0.0222,0.0184,0,0.0341,0.0308,0.0313,0.0282,0.0267,0.028,0.0264,0.0257,0.0257,0.0244,0.0244,0.0229,0.0243,0.0239,0.0226,0.0225,0.0204,0.0228,0.0209,0.0208,0.021,0.0162,0.0153,0.0117,0.0179,0.0178,0.0178,0,0.0288,0.0279,0.0246,0.0242,0.0236,0.0222,0.0211,0.0199,0.0192,0.0193,0.0186,0.0192,0.0174,0.0192,0.0167,0.0183,0.0176,0.0174,0.0173,0.017,0.019,0.0158,0.0106,0.01,0.017,0.0171,0.0171,0,0.025,0.0229,0.0207,0.0203,0.0198,0.0188,0.0185,0.018,0.0172,0.0163,0.0158,0.0146,0.0139,0.0131,0.0134,0.0147,0.0108,0.0127,0.0108,0.0108,0.0098,0.0098,0.0043,0.0095,0.0095,0.0095,0.0095,0,0.0204,0.0183,0.019,0.0176,0.0154,0.0161,0.0139,0.0138,0.0134,0.012,0.0131,0.0118,0.0124,0.0111,0.0114,0.0093,0.009,0.009,0.0091,0.0089,0.0088,0.0083,0.0085,0.0094,0.0094,0.0095,0.0095,0,0.0156,0.016,0.0137,0.0135,0.0135,0.0118,0.0116,0.0104,0.0106,0.0088,0.0085,0.0087,0.0073,0.0076,0.0061,0.0063,0.0036,0.0041,0.0038,0.0039,0.002,0.0021,-0.0041,-0.0049,0.0009,0.0008,0.0008,0,0.0126,0.011,0.0108,0.01,0.0097,0.0084,0.0077,0.0084,0.0076,0.0068,0.0057,0.0044,0.0034,0.0012,0.0012,0.0,0.0004,-0.0017,0.0002,0.0001,0.0003,0.0003,0.0002,-0.0022,-0.0022,-0.0023,-0.0023,0,0.0071,0.0075,0.0064,0.0054,0.0046,0.0038,0.0032,0.0025,0.0032,0.0022,0.0009,0.0001,-0.0013,-0.0026,-0.0036,-0.0039,-0.003,-0.0029,-0.0034,-0.0037,-0.0038,-0.0038,0.0027,-0.0028,-0.0028,-0.0027,-0.0027,-0.0027,0.0031,0.0018,0.0015,0.0003,-0.0001,-0.0006,-0.0018,-0.0017,-0.0028,-0.0039,-0.0034,-0.0049,-0.0053,-0.0066,-0.0069,-0.0081,-0.0074,-0.0081,-0.0083,-0.0085,-0.0087,-0.0035,-0.0083,-0.0083,-0.0083,-0.0083,-0.0083,0,-0.0024,-0.0025,-0.0036,-0.0044,-0.0053,-0.0042,-0.0048,-0.0057,-0.007,-0.0074,-0.0084,-0.0099,-0.011,-0.011,-0.0121,-0.013,-0.0126,-0.0133,-0.0133,-0.0134,-0.0094,-0.0089,-0.0136,-0.0136,-0.0136,-0.0136,-0.0136,-0.0136,-0.0054,-0.0074,-0.0071,-0.0092,-0.0093,-0.0108,-0.0112,-0.0117,-0.012,-0.0137,-0.0146,-0.0145,-0.0148,-0.0158,-0.0168,-0.0168,-0.0173,-0.0181,-0.0179,-0.0142,-0.0137,-0.0132,-0.0127,-0.0182,-0.0182,-0.0219,-0.0219,-0.0219]},{"header":{"parameterUnit":"m.s-1","parameterCategory":1,"la1":30.2991,"la2":30.254,"lo1":-89.0895,"lo2":-89.0444,"dy":0.0017,"dx":0.0017,"nx":28,"ny":28,"refTime":"2023-11-23T03:00:00:Z","depth":0,"parameterNumber":3,"parameterNumberName":"V-component_of_WINDS"},"data":[0,0,0,0,0,0,0,0,0,0,0,0,0,0,0,0,0,0,0,0,0,0,0,0,0,0,0,0,0,0,0,0,0,0,0,0,0,0,0,0,0,0,0,0,0,0,0,0,0,0,0,0,0,0,0,0,0,0,-2.6384,-2.6385,0,-2.6485,-2.6486,-2.6487,-2.6474,-2.6473,-2.6471,-2.647,-2.6571,-2.6575,-2.6579,0,0,0,0,0,0,0,0,0,0,0,0,0,-2.6177,-2.6181,-2.6384,-2.6385,-2.6386,-2.6485,-2.6486,-2.6487,-2.6475,-2.6473,-2.6471,-2.6469,-2.657,-2.6575,-2.658,0,0,0,0,0,0,0,0,0,0,0,0,0,-2.6271,-2.6182,-2.6384,-2.6392,-2.6394,-2.6484,-2.6486,-2.6488,-2.6475,-2.6473,-2.647,-2.6468,-2.6568,-2.6574,-2.658,-2.6669,0,0,-2.66,-2.6602,0,0,0,0,0,0,0,0,-2.6266,-2.6279,-2.6389,-2.6391,-2.6394,-2.6465,-2.645,-2.6548,-2.6476,-2.6444,-2.6469,-2.6467,-2.6537,-2.6546,-2.657,-2.6673,-2.6678,-2.66,-2.6604,-2.6607,-2.6609,0,0,0,0,0,0,0,-2.6259,-2.6274,-2.6424,-2.6391,-2.6394,-2.6389,-2.64,-2.6469,-2.6503,-2.6447,-2.6446,-2.6458,-2.6538,-2.6564,-2.6573,-2.6679,-2.66,-2.6606,-2.661,-2.6612,-2.6858,-2.686,0,0,0,0,0,0,-2.6251,-2.6269,-2.642,-2.6427,-2.6322,-2.6395,-2.6407,-2.6444,-2.6502,-2.6509,-2.646,-2.6457,-2.6555,-2.6565,-2.6576,-2.6682,-2.6607,-2.6613,-2.6616,-2.6855,-2.6858,-2.6861,0,0,0,0,0,0,-2.6247,-2.6265,-2.6416,-2.6348,-2.6367,-2.6401,-2.6443,-2.6447,-2.6474,-2.6513,-2.6519,-2.6481,-2.6553,-2.6567,-2.6645,-2.6686,-2.6616,-2.6621,-2.6852,-2.6856,-2.686,-2.6896,0,0,0,0,0,0,-2.6241,-2.6263,-2.6298,-2.6349,-2.637,-2.6485,-2.6446,-2.6451,-2.6485,-2.6482,-2.6534,-2.654,-2.6552,-2.6636,-2.6652,-2.6693,-2.6626,-2.6848,-2.6854,-2.6859,-2.6891,-2.6901,-2.6909,0,0,0,0,0,-2.6233,-2.6304,-2.63,-2.6318,-2.6415,-2.6488,-2.65,-2.6513,-2.6488,-2.6523,-2.6548,-2.6538,-2.6679,-2.6644,-2.6662,-2.6706,-2.6846,-2.6852,-2.6858,-2.6887,-2.6899,-2.6909,0,0,0,0,0,0,-2.6257,-2.6311,-2.6307,-2.6396,-2.6437,-2.6485,-2.653,-2.6525,-2.6574,-2.6569,-2.6583,-2.6595,-2.6674,-2.6697,-2.6658,-2.6793,-2.6759,-2.6769,-2.6775,-2.6786,-2.6795,-2.6787,-2.6632,0,0,0,0,0,-2.6273,-2.6328,-2.6372,-2.6446,-2.6467,-2.6495,-2.6527,-2.6534,-2.6577,-2.6594,-2.6624,-2.6666,-2.6719,-2.6754,-2.6805,-2.6895,-2.6905,-2.6933,-2.6942,-2.6949,-2.6957,-2.7005,-2.7017,-2.6881,-2.6881,-2.6881,0,0,-2.6306,-2.6342,-2.6376,-2.6452,-2.6485,-2.6541,-2.651,-2.6571,-2.6612,-2.6603,-2.6679,-2.6702,-2.6749,-2.6833,-2.6871,-2.6855,-2.6997,-2.6957,-2.6962,-2.6967,-2.7012,-2.7025,-2.7036,-2.6886,-2.6885,-2.6884,0,0,-2.6394,-2.6428,-2.6493,-2.6526,-2.6576,-2.6594,-2.6609,-2.6657,-2.6673,-2.6749,-2.6743,-2.6792,-2.6884,-2.6917,-2.6946,-2.7045,-2.7037,-2.7061,-2.7107,-2.7153,-2.7163,-2.7173,-2.7207,-2.7219,-2.7069,-2.7069,-2.7069,0,-2.6429,-2.6514,-2.6527,-2.6588,-2.6621,-2.6616,-2.6681,-2.6712,-2.6776,-2.6798,-2.6779,-2.6893,-2.6925,-2.7015,-2.7039,-2.7063,-2.708,-2.7055,-2.7161,-2.7171,-2.718,-2.7212,-2.7225,-2.7072,-2.7072,-2.7071,-2.7071,0,-2.6553,-2.6612,-2.6658,-2.672,-2.6758,-2.6821,-2.6842,-2.6879,-2.6882,-2.6901,-2.6978,-2.7015,-2.7073,-2.7095,-2.7098,-2.7186,-2.7174,-2.7158,-2.7123,-2.7195,-2.7226,-2.7239,-2.7075,-2.7074,-2.7074,-2.7073,0,0,-2.666,-2.6728,-2.6744,-2.6772,-2.6825,-2.6871,-2.6932,-2.6989,-2.702,-2.7064,-2.7115,-2.7192,-2.7177,-2.721,-2.7217,-2.7257,-2.7332,-2.7236,-2.7237,-2.7252,-2.7428,-2.744,-2.7454,-2.7327,-2.7329,-2.7331,-2.7424,0,-2.6753,-2.6864,-2.6876,-2.6974,-2.7028,-2.7022,-2.7076,-2.7114,-2.7133,-2.718,-2.7201,-2.7255,-2.7232,-2.7251,-2.7291,-2.7314,-2.7367,-2.7308,-2.7374,-2.7376,-2.7362,-2.7471,-2.7483,-2.7569,-2.7436,-2.7439,-2.744,0,-2.6877,-2.6924,-2.7027,-2.7072,-2.7095,-2.7143,-2.7196,-2.7241,-2.7284,-2.7294,-2.733,-2.7331,-2.7394,-2.7357,-2.7442,-2.7401,-2.7429,-2.7444,-2.7447,-2.7454,-2.7412,-2.7479,-2.7597,-2.761,-2.7459,-2.7458,-2.7456,0,-2.6944,-2.7033,-2.7106,-2.713,-2.7184,-2.7218,-2.7242,-2.7282,-2.7314,-2.736,-2.7381,-2.7433,-2.7461,-2.7501,-2.7515,-2.7487,-2.7599,-2.7564,-2.7609,-2.7609,-2.7633,-2.7631,-2.7756,-2.7651,-2.7651,-2.7651,-2.7651,0,-2.7047,-2.711,-2.7137,-2.7181,-2.7251,-2.7264,-2.7333,-2.7355,-2.739,-2.7438,-2.7437,-2.7481,-2.7498,-2.7545,-2.7557,-2.7625,-2.7638,-2.7648,-2.765,-2.7648,-2.7646,-2.7666,-2.766,-2.7654,-2.7654,-2.7653,-2.7652,0,-2.7133,-2.7154,-2.7233,-2.7278,-2.729,-2.7339,-2.7377,-2.742,-2.7437,-2.7498,-2.7513,-2.7541,-2.7596,-2.7614,-2.7681,-2.7689,-2.7768,-2.7765,-2.7754,-2.7754,-2.7798,-2.7793,-2.7939,-2.7959,-2.7842,-2.7843,-2.7844,0,-2.7197,-2.7246,-2.7295,-2.7327,-2.7353,-2.7405,-2.7438,-2.7452,-2.7487,-2.7537,-2.7573,-2.7628,-2.7673,-2.7761,-2.7787,-2.7837,-2.7836,-2.7883,-2.7843,-2.7839,-2.7835,-2.7832,-2.7836,-2.7891,-2.7892,-2.7893,-2.7894,0,-2.7308,-2.7316,-2.7364,-2.7416,-2.7456,-2.7497,-2.7537,-2.7563,-2.7583,-2.7622,-2.7678,-2.7713,-2.7781,-2.7835,-2.7886,-2.7909,-2.7905,-2.7906,-2.7919,-2.7917,-2.7908,-2.7913,-2.7774,-2.7903,-2.7902,-2.7901,-2.7901,-2.79,-2.7385,-2.7427,-2.7468,-2.7522,-2.7553,-2.759,-2.7632,-2.7655,-2.7702,-2.7759,-2.7764,-2.7825,-2.7864,-2.7932,-2.7958,-2.8005,-2.7991,-2.801,-2.8015,-2.8019,-2.8022,-2.7901,-2.8014,-2.8014,-2.8014,-2.8013,-2.8013,0,-2.7496,-2.7521,-2.757,-2.7626,-2.7668,-2.766,-2.7703,-2.7738,-2.7792,-2.7829,-2.7872,-2.7936,-2.7988,-2.8017,-2.8069,-2.81,-2.8099,-2.8113,-2.8111,-2.8116,-2.8032,-2.8015,-2.8113,-2.8113,-2.8113,-2.8113,-2.8113,-2.8113,-2.7558,-2.7628,-2.764,-2.7725,-2.775,-2.781,-2.7835,-2.7869,-2.7898,-2.797,-2.8013,-2.8032,-2.8065,-2.8119,-2.8165,-2.8172,-2.8191,-2.8207,-2.8212,-2.8133,-2.8122,-2.8113,-2.8097,-2.8211,-2.8211,-2.8292,-2.8293,-2.8294]}]]